Starlink 11350

operational
NORAD ID: 61540 Int'l Des: 2024-184 Owner: SPXS Country: US Constellation: starlink
LEOCIRCULAR

关于 Starlink 11350

正在加载描述...

实时位置

正在加载3D地球...

即将过境

高度历史

Altitude vs Time

uPlot chart will show altitude changes over time

两行轨道根数

1 61540U 24184J 25259.62620823 -.00002731 00000-0 -17713-4 0 9995
2 61540 53.1591 13.9689 0000922 109.0646 251.0472 15.69689560 53089
Epoch: Sep 16, 2025 • Age: 33 hours

当前状态

高度 359.6 km
速度 7.70 km/s
星下点 16.49°N, 179.57°W
发射日期 Oct 15, 2024
运行时间 0.9 years
类型 internet

技术详情

分类 Payload
质量 960.00 kg
干质量 910.00 kg
总质量 960.00 kg
长度 0.30 m
直径 4.10 m
跨度 29.00 m
形状 Box + pan
制造商 SPXS
平台类型 Starlink V2MD
阶段状态 In Orbit
所有者/国家 SPXS/US

大型星座

Loading constellations...